SL-16 DEB

Satellite information

Favourite Embed

Satellite Type and Status

DEBRISIN ORBIT

Key statistics

Satellite SL-16 DEB at a glance.

Uptime

11792

Days in orbit

Revolutions

≈ 14.4

Per day

Orbit

LEO

Low Earth Orbit

Inclination

71.0

Latest

Satellite identification and parameters

Extended collection of information and parameters for SL-16 DEB.

Object identification

Identified? True

Debris? True

Object name: SL-16 DEB

International designator: 1993-016AJ

Object number (NORAD): 26968

Object ID (CCSDS): 26968

Country: COMMONWEALTH OF INDEPENDENT STATES (CIS)

Current information (Y/N): Y

RCS size: SMALL

Orbital parameters

Period: 99.884 minutes

Inclination: 70.9968 deg

SMA: 7131.12 km

Apoapsis: 758.018 km

Periapsis: 747.952 km

RAAN: 300.0694 deg

Eccentricy: 0.0007058

Argument of periapsis: 48.3836 deg

Mean anomaly: 79.8176 deg

Mean motion: 14.41670845 rev/day

Mean motion (dot): 0.00001669 rev/day2

B* drag term: 0.00052719 1/REarth

Two-line elements (TLE)

Creation date: July 8, 2025, 2:27 a.m.

Reference frame: TEME

Reference center: EARTH

Epoch: July 7, 2025, 5:52 p.m. UTC

TLE line 0: 0 SL-16 DEB

TLE line 1: 1 26968U 93016AJ 25188.74480559 .00001669 00000-0 52719-3 0 9995

TLE line 2: 2 26968 70.9968 300.0694 0007058 48.3836 79.8176 14.41670845679624

Live tracking on map

Real-time ground track for satellite SL-16 DEB.

In-orbit conjunctions

A list of the most updated potential collisions computed for object SL-16 DEB.

Target Orbit TCA Probability of collision Miss distance Type
CZ-2D R/B SSO 2024-11-29 21:23:11 0.0001020783 196.0 (m) ROCKET BODY
DMSP 5D-2 F13 DEB SSO 2024-11-11 11:36:32 0.0002622633 399.0 (m) DEBRIS
RITE TARGET 1 SSO 2024-07-16 08:22:46 0.0002798149 279.0 (m) PAYLOAD

Associated space launch

Second generation ELING satellite

SL-16 DEB was lifted into orbit during the mission ‘Zenit-2 | Tselina-2 13’, on board a Zenit-2 space rocket.

The launch took place on March 26, 1993, 2:21 a.m. from 45/1.

For more information about the launch, click the button.

Launch to space Zenit-2 | Tselina-2 13
Zenit-2 | Tselina-2 13

Agency: N/A

Status: Launch Successful

Launch date: March 26, 1993, 2:21 a.m. UTC

Rocket: Zenit-2

Launch pad: 45/1

Location: Baikonur Cosmodrome, Republic of Kazakhstan

...

Latest news about this satellite

There are no fresh news available about this satellite. Check back as we update our databases every day.


Newsletter sign-up

Weekly statistics, charts and insights to help you stay on top of the space industry.